| time (UTC) | temp F | wind direction | speed MPH | gust MPH | rain 1hr in | rain 24hr in | rain mn in | humidity % | barometer mb |
| 20260507000050 | 58 | 29 | 1.0 | 4.0 | 0.00 | 0.18 | 0.17 | 92 | 1004.8 |
| 20260506234551 | 58 | 40 | 1.0 | 5.0 | 0.00 | 0.18 | 0.17 | 92 | 1004.7 |
| 20260506233101 | 58 | 20 | 1.0 | 4.0 | 0.00 | 0.18 | 0.17 | 92 | 1004.4 |
| 20260506231553 | 58 | 39 | 1.0 | 4.0 | 0.00 | 0.18 | 0.17 | 92 | 1004.5 |
| 20260506230047 | 58 | 0 | 2.0 | 10.0 | 0.00 | 0.18 | 0.17 | 92 | 1004.7 |
| 20260506224541 | 58 | 29 | 2.0 | 6.0 | 0.00 | 0.18 | 0.17 | 92 | 1004.6 |
| 20260506223049 | 58 | 22 | 4.0 | 8.0 | 0.00 | 0.18 | 0.17 | 91 | 1004.8 |
| 20260506221549 | 58 | 307 | 0.0 | 7.0 | 0.00 | 0.18 | 0.17 | 91 | 1004.7 |
| 20260506220046 | 59 | 63 | 3.0 | 11.0 | 0.00 | 0.18 | 0.17 | 90 | 1004.8 |
| 20260506214550 | 59 | 30 | 6.0 | 14.0 | 0.00 | 0.18 | 0.17 | 90 | 1004.8 |
| 20260506213057 | 59 | 346 | 5.0 | 12.0 | 0.01 | 0.18 | 0.17 | 90 | 1004.8 |
| 20260506211543 | 59 | 300 | 2.0 | 11.0 | 0.01 | 0.18 | 0.17 | 91 | 1004.7 |
| 20260506210048 | 59 | 16 | 3.0 | 11.0 | 0.01 | 0.18 | 0.17 | 91 | 1004.7 |
| 20260506204541 | 59 | 0 | 1.0 | 13.0 | 0.02 | 0.18 | 0.17 | 92 | 1004.8 |
| 20260506203047 | 59 | 36 | 4.0 | 9.0 | 0.03 | 0.17 | 0.16 | 92 | 1004.9 |
| 20260506201546 | 59 | 11 | 4.0 | 8.0 | 0.05 | 0.17 | 0.16 | 92 | 1005.1 |
| 20260506200042 | 60 | 46 | 2.0 | 7.0 | 0.06 | 0.17 | 0.16 | 92 | 1005.5 |
| 20260506194549 | 60 | 5 | 3.0 | 8.0 | 0.05 | 0.16 | 0.15 | 92 | 1005.5 |
| 20260506193046 | 60 | 21 | 3.0 | 7.0 | 0.04 | 0.14 | 0.13 | 91 | 1005.7 |
| 20260506191546 | 60 | 32 | 1.0 | 9.0 | 0.03 | 0.12 | 0.11 | 91 | 1005.7 |
| 20260506190047 | 61 | 352 | 1.0 | 6.0 | 0.02 | 0.11 | 0.10 | 91 | 1005.8 |
| 20260506184551 | 61 | 333 | 3.0 | 7.0 | 0.04 | 0.11 | 0.10 | 91 | 1005.5 |
| 20260506183052 | 61 | 0 | 0.0 | 1.0 | 0.06 | 0.10 | 0.09 | 91 | 1005.9 |
| 20260506181609 | 60 | 32 | 0.0 | 3.0 | 0.07 | 0.09 | 0.08 | 91 | 1006.4 |
| 20260506180048 | 60 | 35 | 1.0 | 2.0 | 0.08 | 0.09 | 0.08 | 90 | 1006.9 |
| 20260506174545 | 60 | 37 | 0.0 | 1.0 | 0.06 | 0.07 | 0.06 | 89 | 1006.8 |
| 20260506173058 | 61 | 0 | 0.0 | 3.0 | 0.03 | 0.04 | 0.03 | 86 | 1007.3 |
| 20260506171544 | 62 | 52 | 1.0 | 5.0 | 0.01 | 0.02 | 0.01 | 83 | 1007.3 |
| 20260506170042 | 63 | 4 | 3.0 | 12.0 | 0.00 | 0.01 | 0.00 | 78 | 1007.3 |
| 20260506164548 | 64 | 26 | 5.0 | 15.0 | 0.00 | 0.01 | 0.00 | 75 | 1007.2 |
| 20260506163047 | 64 | 27 | 7.0 | 17.0 | 0.00 | 0.01 | 0.00 | 73 | 1007.2 |
| 20260506161548 | 64 | 352 | 4.0 | 12.0 | 0.00 | 0.01 | 0.00 | 73 | 1007.5 |
| 20260506160052 | 64 | 27 | 4.0 | 14.0 | 0.00 | 0.01 | 0.00 | 73 | 1007.6 |
| 20260506154547 | 65 | 359 | 5.0 | 17.0 | 0.00 | 0.01 | 0.00 | 72 | 1007.9 |
| 20260506153104 | 64 | 25 | 4.0 | 12.0 | 0.00 | 0.01 | 0.00 | 73 | 1008.0 |
| 20260506151544 | 64 | 1 | 4.0 | 13.0 | 0.00 | 0.01 | 0.00 | 73 | 1008.4 |
| 20260506150057 | 65 | 355 | 5.0 | 13.0 | 0.00 | 0.01 | 0.00 | 72 | 1008.3 |
| 20260506144555 | 66 | 360 | 8.0 | 16.0 | 0.00 | 0.01 | 0.00 | 70 | 1008.3 |
| 20260506143045 | 65 | 51 | 4.0 | 12.0 | 0.00 | 0.01 | 0.00 | 71 | 1008.2 |
| 20260506141543 | 65 | 10 | 4.0 | 16.0 | 0.00 | 0.01 | 0.00 | 71 | 1008.1 |
| 20260506140051 | 64 | 338 | 4.0 | 13.0 | 0.00 | 0.01 | 0.00 | 73 | 1007.9 |
| 20260506134540 | 64 | 350 | 4.0 | 12.0 | 0.00 | 0.01 | 0.00 | 73 | 1007.6 |
| 20260506133049 | 64 | 10 | 4.0 | 11.0 | 0.00 | 0.01 | 0.00 | 74 | 1007.9 |
| 20260506131553 | 64 | 23 | 3.0 | 6.0 | 0.00 | 0.01 | 0.00 | 76 | 1008.3 |
| 20260506130047 | 63 | 3 | 4.0 | 8.0 | 0.00 | 0.01 | 0.00 | 77 | 1008.3 |
| 20260506124546 | 62 | 335 | 5.0 | 11.0 | 0.00 | 0.01 | 0.00 | 77 | 1008.4 |
| 20260506123041 | 62 | 310 | 5.0 | 18.0 | 0.00 | 0.01 | 0.00 | 78 | 1008.6 |
| 20260506121539 | 61 | 52 | 4.0 | 10.0 | 0.00 | 0.01 | 0.00 | 79 | 1008.4 |
| 20260506120048 | 61 | 46 | 2.0 | 5.0 | 0.00 | 0.01 | 0.00 | 79 | 1008.5 |
| 20260506114547 | 60 | 338 | 3.0 | 8.0 | 0.00 | 0.01 | 0.00 | 79 | 1008.8 |
| 20260506113046 | 60 | 326 | 3.0 | 10.0 | 0.00 | 0.01 | 0.00 | 80 | 1008.7 |
| 20260506111545 | 60 | 8 | 3.0 | 8.0 | 0.00 | 0.01 | 0.00 | 80 | 1008.8 |
| 20260506110041 | 59 | 341 | 2.0 | 8.0 | 0.00 | 0.01 | 0.00 | 80 | 1008.9 |
| 20260506104542 | 59 | 17 | 3.0 | 7.0 | 0.00 | 0.01 | 0.00 | 81 | 1008.9 |
| 20260506103053 | 58 | 39 | 2.0 | 5.0 | 0.00 | 0.01 | 0.00 | 81 | 1008.9 |
| 20260506101547 | 57 | 33 | 1.0 | 4.0 | 0.00 | 0.01 | 0.00 | 82 | 1008.7 |
| 20260506100045 | 58 | 37 | 2.0 | 6.0 | 0.00 | 0.01 | 0.00 | 81 | 1008.6 |
| 20260506094545 | 58 | 42 | 2.0 | 6.0 | 0.00 | 0.01 | 0.00 | 81 | 1008.6 |
| 20260506093041 | 58 | 29 | 2.0 | 4.0 | 0.00 | 0.01 | 0.00 | 80 | 1008.5 |
| 20260506091554 | 58 | 13 | 2.0 | 5.0 | 0.00 | 0.01 | 0.00 | 80 | 1008.5 |
| 20260506090056 | 58 | 21 | 2.0 | 6.0 | 0.00 | 0.01 | 0.00 | 79 | 1008.6 |
| 20260506084551 | 58 | 33 | 3.0 | 4.0 | 0.00 | 0.01 | 0.00 | 79 | 1008.6 |
| 20260506083047 | 58 | 22 | 2.0 | 4.0 | 0.00 | 0.01 | 0.00 | 78 | 1008.6 |
| 20260506081543 | 59 | 25 | 3.0 | 5.0 | 0.00 | 0.01 | 0.00 | 76 | 1008.8 |
| 20260506073048 | 61 | 29 | 4.0 | 8.0 | 0.00 | 0.01 | 0.00 | 72 | 1008.8 |
| 20260506071549 | 61 | 25 | 2.0 | 9.0 | 0.00 | 0.01 | 0.00 | 71 | 1008.9 |
| 20260506061544 | 62 | 0 | 3.0 | 5.0 | 0.00 | 0.01 | 0.00 | 68 | 1008.4 |
| 20260506044552 | 63 | 20 | 1.0 | 5.0 | 0.00 | 0.01 | 0.00 | 65 | 1008.9 |
| 20260506043047 | 62 | 0 | 0.0 | 4.0 | 0.00 | 0.01 | 0.00 | 65 | 1008.8 |
| 20260506041547 | 62 | 0 | 1.0 | 4.0 | 0.00 | 0.01 | 0.00 | 66 | 1008.9 |
| 20260506040047 | 63 | 0 | 0.0 | 5.0 | 0.00 | 0.01 | 0.00 | 65 | 1008.8 |
| 20260506034557 | 63 | 0 | 0.0 | 4.0 | 0.00 | 0.01 | 0.01 | 64 | 1008.9 |
| 20260506033041 | 64 | 21 | 3.0 | 6.0 | 0.00 | 0.01 | 0.01 | 64 | 1008.9 |
| 20260506031547 | 64 | 77 | 3.0 | 10.0 | 0.00 | 0.01 | 0.01 | 63 | 1008.9 |
| 20260506030046 | 64 | 56 | 1.0 | 6.0 | 0.00 | 0.01 | 0.01 | 64 | 1008.9 |
| 20260506024605 | 65 | 37 | 4.0 | 12.0 | 0.00 | 0.01 | 0.01 | 63 | 1009.0 |
| 20260506023044 | 65 | 18 | 2.0 | 7.0 | 0.00 | 0.01 | 0.01 | 63 | 1008.9 |
| 20260506021541 | 65 | 24 | 3.0 | 9.0 | 0.00 | 0.01 | 0.01 | 62 | 1008.9 |
| 20260506020040 | 65 | 30 | 2.0 | 9.0 | 0.00 | 0.01 | 0.01 | 62 | 1008.9 |
| 20260506014550 | 65 | 32 | 1.0 | 5.0 | 0.00 | 0.01 | 0.01 | 64 | 1008.7 |
| 20260506013101 | 65 | 348 | 0.0 | 2.0 | 0.00 | 0.01 | 0.01 | 67 | 1008.6 |
| 20260506011602 | 64 | 0 | 0.0 | 1.0 | 0.00 | 0.01 | 0.01 | 69 | 1008.6 |
| 20260506010043 | 63 | 0 | 0.0 | 0.0 | 0.01 | 0.01 | 0.01 | 81 | 1008.6 |
| 20260506004541 | 64 | 0 | 0.0 | 1.0 | 0.01 | 0.01 | 0.01 | 76 | 1008.4 |
| 20260506003041 | 65 | 0 | 0.0 | 1.0 | 0.01 | 0.01 | 0.01 | 73 | 1008.2 |
| 20260506001548 | 68 | 137 | 2.0 | 8.0 | 0.01 | 0.01 | 0.01 | 63 | 1008.1 |